Location: Haut Kerinec
(48.0623°N, 4.4081°W)
Time: 12:35:26
(UTC+00:00)

Landsat 7 - Pass Details

Date: 01 June 2020
Orbit: 701 x 703 km, 98.1° (Epoch: 02 July)

Event Time Altitude Azimuth Distance (km) Brightness Sun altitude
Exits shadow 21:36:40 10° 175° (S) 2,139 5.8 -11.2°
Maximum altitude 21:41:19 67° 258° (WSW) 767 4.1 -11.7°
Drops below altitude 10° 21:46:05 10° 341° (NNW) 2,182 7.7 -12.1°
Sets 21:48:22 0° 344° (NNW) 3,105 8.7 -12.4°
